User: anonymous   Login
Location: Nebula Knoll Observatory
(43.6666°N, 71.0000°W)
Time: 06:04:36
(UTC-05:00)
Language:

Cosmos 1782 - Orbit

View from above orbital plane
View from above orbital plane
View from above satellite
View from above satellite

Ground track
Ground track

The orbit data is extracted from the following two-line orbital elements,

1 16986U 86074A   19022.82967114  .00000974  00000-0  63065-4 0  9991
2 16986  82.5069 272.2756 0011148 135.0001 225.2132 15.06999683758898
Epoch (UTC): 22 January 2019 19:54:43
Eccentricity: 0.0011148
inclination: 82.5069°
perigee height: 537 km
apogee height: 553 km
right ascension of ascending node: 272.2756°
argument of perigee: 135.0001°
revolutions per day: 15.06999683
mean anomaly at epoch: 225.2132°
orbit number at epoch: 75889

The dashed part of the orbit path shows where the satellite is in the earth's shadow,  

DLR